Left ArrowRight Arrow

40.92501, -98.34201

Hourly Observations for June 17, 2024

Temp ( °F °C ) Dew Point ( °F °C ) Humidity (%) Winds ( mph kmh ) Pressure ( in mb ) Visibility ( mi km ) Precip ( " mm )
12:22 am 00:22 Clear 82 27.8 69 20.6 65 65 S 20 31 29.57 1001 10 16 0.00 0.00
12:53 am 00:53 Clear 82 27.8 69 20.6 65 65 SSE 16 26 29.60 1002 10 16 0.00 0.00
1:53 am 01:53 Clear 80 26.7 69 20.6 69 69 S 18 30 29.59 1002 10 16 0.00 0.00
2:53 am 02:53 Clear 80 26.7 69 20.6 69 69 S 15 24 29.62 1003 10 16 0.00 0.00
3:53 am 03:53 Clear 79 26.1 69 20.6 72 72 SSW 9 15 29.65 1004 10 16 0.00 0.00
4:53 am 04:53 Cloudy 74 23.3 62 16.7 66 66 N 10 17 29.72 1006 10 16 0.00 0.00
5:53 am 05:53 Cloudy 68 20 60 15.6 76 76 ENE 23 37 29.73 1007 10 16 0.00 0.00
6:53 am 06:53 Cloudy with Strong Thunderstorms 67 19.4 62 16.7 84 84 ENE 18 30 29.73 1007 10 16 0.00 0.00
7:13 am 07:13 Cloudy with Strong Thunderstorms 66 18.9 62 16.7 87 87 E 14 22 29.73 1007 1 2 0.13 3.30
7:22 am 07:22 Cloudy with Nearby Thunderstorms 66 18.9 63 17.2 90 90 E 15 24 29.73 1007 2 3 0.20 5.08
7:32 am 07:32 Cloudy with Nearby Thunderstorms 66 18.9 63 17.2 90 90 E 20 31 29.73 1007 8 13 0.21 5.33
7:53 am 07:53 Cloudy with Thunderstorms 65 18.3 63 17.2 93 93 E 13 20 29.73 1007 10 16 0.21 5.33
8:02 am 08:02 Cloudy with Nearby Thunderstorms 66 18.9 63 17.2 90 90 E 14 22 29.72 1006 10 16 0.00 0.00
8:40 am 08:40 Cloudy 66 18.9 63 17.2 90 90 E 18 30 29.73 1007 10 16 0.00 0.00
8:53 am 08:53 Cloudy 66 18.9 63 17.2 90 90 E 20 31 29.74 1007 10 16 0.00 0.00
9:21 am 09:21 Cloudy 66 18.9 63 17.2 90 90 E 20 31 29.73 1007 10 16 0.00 0.00
9:41 am 09:41 Cloudy 66 18.9 62 16.7 87 87 ENE 16 26 29.74 1007 10 16 0.00 0.00
9:53 am 09:53 Cloudy 66 18.9 63 17.2 90 90 E 18 30 29.74 1007 10 16 0.00 0.00
10:08 am 10:08 Cloudy 66 18.9 63 17.2 90 90 E 16 26 29.71 1006 10 16 0.00 0.00
10:50 am 10:50 Cloudy 68 20 64 18 88 88 E 15 24 29.69 1005 10 16 0.00 0.00
10:53 am 10:53 Cloudy 68 20 64 17.8 87 87 E 16 26 29.71 1006 10 16 0.00 0.00
11:53 am 11:53 Partly Cloudy 75 23.9 68 20 79 79 ESE 17 28 29.66 1004 10 16 0.00 0.00
12:53 pm 12:53 Mostly Sunny 82 27.8 71 21.7 69 69 SE 18 30 29.62 1003 10 16 0.00 0.00
1:53 pm 13:53 Mostly Sunny 86 30 72 22.2 63 63 SSE 20 31 29.60 1002 10 16 0.00 0.00
2:53 pm 14:53 Sunny 88 31.1 71 21.7 57 57 S 24 39 29.55 1001 10 16 0.00 0.00
3:53 pm 15:53 Mostly Sunny N/A N/A N/A undefined N/A 29.68 1005 N/A 0.00 0.00
4:53 pm 16:53 Sunny 91 32.8 72 22.2 54 54 S 22 35 29.52 1000 9 14 0.00 0.00
5:53 pm 17:53 Sunny 90 32.2 71 21.7 54 54 S 29 46 29.51 999 10 16 0.00 0.00
6:53 pm 18:53 Sunny 89 31.7 70 21.1 54 54 S 23 37 29.51 999 10 16 0.00 0.00
7:53 pm 19:53 Sunny 88 31.1 69 20.6 54 54 SSE 18 30 29.53 1000 10 16 0.00 0.00
8:53 pm 20:53 Sunny 85 29.4 69 20.6 59 59 SSE 18 30 29.54 1000 10 16 0.00 0.00
9:53 pm 21:53 Clear 83 28.3 69 20.6 63 63 SSE 22 35 29.54 1000 10 16 0.00 0.00
10:53 pm 22:53 Clear 81 27.2 69 20.6 67 67 SSE 20 31 29.56 1001 10 16 0.00 0.00
11:53 pm 23:53 Clear 80 26.7 69 20.6 69 69 S 22 35 29.55 1001 10 16 0.00 0.00

Powered by Vaisala Xweather